When you browse on this site, cookies collect data to enhance your experience and personalize the content and advertising you see.
Visit our Privacy Policy to learn more. By continuing to use the site, you agree to this use of cookies and data.

Météo par heure à Chernaya Rechka

Ce jour, 7 Août, Vendredi

Heure Température Précipitation Vent Pression Humidité
00:00 +19°C° 0 mm 2 m/s 753 mmHg 79%
01:00 +19°C° 0 mm 2 m/s 753 mmHg 83%
02:00 +18°C° 0 mm 2 m/s 753 mmHg 86%
03:00 +18°C° 0 mm 2 m/s 754 mmHg 82%
04:00 +18°C° 0 mm 2 m/s 754 mmHg 83%
05:00 +18°C° 0 mm 3 m/s 754 mmHg 85%
06:00 +19°C° 0 mm 3 m/s 753 mmHg 86%
07:00 +19°C° 0 mm 3 m/s 754 mmHg 84%
08:00 +20°C° 0 mm 4 m/s 754 mmHg 82%
09:00 +21°C° 0 mm 4 m/s 754 mmHg 81%
10:00 +23°C° 0 mm 4 m/s 754 mmHg 74%
11:00 +25°C° 0 mm 5 m/s 754 mmHg 67%
12:00 +26°C° 0 mm 5 m/s 754 mmHg 60%
13:00 +26°C° 0 mm 5 m/s 754 mmHg 57%
14:00 +26°C° 0 mm 5 m/s 754 mmHg 55%
15:00 +27°C° 0 mm 5 m/s 754 mmHg 52%
16:00 +26°C° 0 mm 5 m/s 753 mmHg 55%
17:00 +25°C° 0 mm 4 m/s 753 mmHg 58%
18:00 +25°C° 0 mm 3 m/s 753 mmHg 61%
19:00 +22°C° 0 mm 3 m/s 753 mmHg 65%
20:00 +21°C° 0 mm 3 m/s 753 mmHg 68%
21:00 +19°C° 0 mm 3 m/s 754 mmHg 72%
22:00 +18°C° 0 mm 3 m/s 754 mmHg 75%
23:00 +17°C° 0 mm 3 m/s 753 mmHg 77%

Demain, 8 Août, Samedi

Heure Température Précipitation Vent Pression Humidité
00:00 +17°C° 0 mm 3 m/s 753 mmHg 80%
01:00 +16°C° 0 mm 3 m/s 753 mmHg 82%
02:00 +16°C° 0 mm 3 m/s 753 mmHg 84%
03:00 +14°C° 0 mm 3 m/s 753 mmHg 87%
04:00 +14°C° 0 mm 3 m/s 753 mmHg 87%
05:00 +14°C° 0 mm 3 m/s 753 mmHg 88%
06:00 +14°C° 0 mm 3 m/s 753 mmHg 88%
07:00 +17°C° 0 mm 3 m/s 753 mmHg 82%
08:00 +19°C° 0 mm 3 m/s 753 mmHg 75%
09:00 +21°C° 0 mm 3 m/s 753 mmHg 68%
10:00 +22°C° 0 mm 3 m/s 753 mmHg 63%
11:00 +24°C° 0 mm 3 m/s 753 mmHg 59%
12:00 +25°C° 0 mm 4 m/s 752 mmHg 54%
13:00 +25°C° 0.1 mm 4 m/s 752 mmHg 54%
14:00 +25°C° 0.1 mm 4 m/s 751 mmHg 54%
15:00 +25°C° 0.1 mm 4 m/s 751 mmHg 55%
16:00 +25°C° 0 mm 4 m/s 751 mmHg 58%
17:00 +24°C° 0 mm 3 m/s 751 mmHg 60%
18:00 +24°C° 0 mm 3 m/s 750 mmHg 63%
19:00 +22°C° 0 mm 3 m/s 750 mmHg 69%
20:00 +20°C° 0 mm 3 m/s 750 mmHg 74%
21:00 +19°C° 0 mm 3 m/s 750 mmHg 79%
22:00 +18°C° 0 mm 3 m/s 750 mmHg 83%
23:00 +17°C° 0 mm 2 m/s 750 mmHg 87%

Après-demain, 9 Août, Dimanche

Heure Température Précipitation Vent Pression Humidité
00:00 +16°C° 0 mm 2 m/s 749 mmHg 91%
01:00 +16°C° 0 mm 2 m/s 749 mmHg 93%
02:00 +16°C° 0 mm 2 m/s 749 mmHg 94%
03:00 +15°C° 0 mm 2 m/s 749 mmHg 96%
04:00 +15°C° 0 mm 2 m/s 749 mmHg 95%
05:00 +14°C° 0 mm 3 m/s 749 mmHg 95%
06:00 +14°C° 0 mm 3 m/s 749 mmHg 94%
07:00 +17°C° 0 mm 3 m/s 749 mmHg 87%
08:00 +18°C° 0 mm 3 m/s 749 mmHg 79%
09:00 +20°C° 0 mm 3 m/s 749 mmHg 72%
10:00 +21°C° 0 mm 4 m/s 749 mmHg 66%
11:00 +23°C° 0 mm 4 m/s 749 mmHg 60%
12:00 +25°C° 0 mm 4 m/s 749 mmHg 54%
13:00 +25°C° 0 mm 4 m/s 749 mmHg 52%
14:00 +25°C° 0 mm 4 m/s 748 mmHg 51%
15:00 +26°C° 0 mm 3 m/s 748 mmHg 50%
16:00 +25°C° 0.1 mm 3 m/s 748 mmHg 55%
17:00 +24°C° 0.1 mm 3 m/s 748 mmHg 60%
18:00 +24°C° 0.1 mm 3 m/s 748 mmHg 64%
19:00 +21°C° 0 mm 3 m/s 748 mmHg 70%
20:00 +20°C° 0 mm 2 m/s 747 mmHg 75%
21:00 +18°C° 0 mm 2 m/s 747 mmHg 80%
22:00 +17°C° 0 mm 2 m/s 748 mmHg 82%
23:00 +17°C° 0 mm 2 m/s 748 mmHg 83%

10 Août, Lundi

Heure Température Précipitation Vent Pression Humidité
00:00 +16°C° 0 mm 2 m/s 748 mmHg 85%
01:00 +16°C° 0 mm 2 m/s 748 mmHg 86%
02:00 +15°C° 0 mm 2 m/s 748 mmHg 86%
03:00 +14°C° 0 mm 2 m/s 748 mmHg 87%
04:00 +14°C° 0 mm 2 m/s 748 mmHg 88%
05:00 +14°C° 0 mm 2 m/s 748 mmHg 88%
06:00 +14°C° 0 mm 2 m/s 748 mmHg 88%
07:00 +16°C° 0 mm 3 m/s 748 mmHg 81%
08:00 +18°C° 0 mm 3 m/s 748 mmHg 73%
09:00 +19°C° 0 mm 3 m/s 748 mmHg 66%
10:00 +20°C° 0 mm 4 m/s 748 mmHg 62%
11:00 +21°C° 0 mm 4 m/s 748 mmHg 58%
12:00 +22°C° 0 mm 4 m/s 748 mmHg 54%
13:00 +22°C° 0 mm 4 m/s 748 mmHg 52%
14:00 +23°C° 0 mm 4 m/s 748 mmHg 49%
15:00 +24°C° 0 mm 3 m/s 748 mmHg 47%
16:00 +24°C° 0 mm 3 m/s 748 mmHg 50%
17:00 +23°C° 0 mm 2 m/s 748 mmHg 52%
18:00 +23°C° 0 mm 2 m/s 748 mmHg 55%
19:00 +20°C° 0 mm 2 m/s 748 mmHg 59%
20:00 +19°C° 0 mm 1 m/s 748 mmHg 63%
21:00 +16°C° 0 mm 1 m/s 748 mmHg 68%
22:00 +16°C° 0 mm 1 m/s 748 mmHg 68%
23:00 +15°C° 0 mm 1 m/s 748 mmHg 69%

11 Août, Mardi

Heure Température Précipitation Vent Pression Humidité
00:00 +15°C° 0 mm 1 m/s 748 mmHg 70%
01:00 +15°C° 0 mm 1 m/s 748 mmHg 71%
02:00 +14°C° 0 mm 1 m/s 748 mmHg 72%
03:00 +14°C° 0 mm 1 m/s 748 mmHg 74%
04:00 +14°C° 0 mm 1 m/s 748 mmHg 76%
05:00 +14°C° 0 mm 1 m/s 748 mmHg 77%
06:00 +15°C° 0 mm 1 m/s 748 mmHg 79%
07:00 +18°C° 0 mm 1 m/s 747 mmHg 74%
08:00 +20°C° 0 mm 1 m/s 747 mmHg 69%
09:00 +21°C° 0 mm 2 m/s 747 mmHg 63%
10:00 +23°C° 0 mm 2 m/s 747 mmHg 60%
11:00 +24°C° 0 mm 2 m/s 747 mmHg 57%
12:00 +26°C° 0 mm 2 m/s 746 mmHg 54%
13:00 +25°C° 0.9 mm 2 m/s 746 mmHg 57%
14:00 +25°C° 0.9 mm 3 m/s 746 mmHg 59%
15:00 +25°C° 0.9 mm 3 m/s 745 mmHg 62%
16:00 +24°C° 1.3 mm 3 m/s 745 mmHg 67%
17:00 +24°C° 1.3 mm 3 m/s 745 mmHg 71%
18:00 +22°C° 1.3 mm 3 m/s 745 mmHg 76%
19:00 +21°C° 0.3 mm 2 m/s 745 mmHg 80%
20:00 +19°C° 0.3 mm 2 m/s 745 mmHg 84%
21:00 +18°C° 0.3 mm 2 m/s 745 mmHg 89%
22:00 +17°C° 0 mm 3 m/s 745 mmHg 89%
23:00 +17°C° 0 mm 3 m/s 745 mmHg 90%

12 Août, Mercredi

Heure Température Précipitation Vent Pression Humidité
00:00 +16°C° 0 mm 3 m/s 745 mmHg 91%
01:00 +14°C° 0 mm 3 m/s 745 mmHg 92%
02:00 +13°C° 0 mm 3 m/s 745 mmHg 93%
03:00 +13°C° 0 mm 3 m/s 745 mmHg 94%
04:00 +13°C° 0 mm 3 m/s 745 mmHg 93%
05:00 +12°C° 0 mm 3 m/s 745 mmHg 92%
06:00 +12°C° 0 mm 3 m/s 745 mmHg 91%
07:00 +14°C° 0 mm 3 m/s 745 mmHg 84%
08:00 +16°C° 0 mm 3 m/s 745 mmHg 78%
09:00 +18°C° 0 mm 3 m/s 745 mmHg 72%
10:00 +19°C° 0 mm 3 m/s 745 mmHg 66%
11:00 +20°C° 0 mm 4 m/s 745 mmHg 60%
12:00 +21°C° 0 mm 4 m/s 745 mmHg 55%
13:00 +20°C° 0 mm 4 m/s 745 mmHg 55%
14:00 +20°C° 0 mm 4 m/s 745 mmHg 56%
15:00 +20°C° 0 mm 4 m/s 745 mmHg 57%
16:00 +19°C° 0.1 mm 4 m/s 745 mmHg 61%
17:00 +19°C° 0.1 mm 4 m/s 746 mmHg 65%
18:00 +19°C° 0.1 mm 4 m/s 746 mmHg 69%
19:00 +17°C° 0 mm 3 m/s 746 mmHg 76%
20:00 +14°C° 0 mm 3 m/s 746 mmHg 82%
21:00 +13°C° 0 mm 3 m/s 746 mmHg 89%
22:00 +12°C° 0 mm 3 m/s 745 mmHg 91%
23:00 +12°C° 0 mm 3 m/s 745 mmHg 94%
Voir plus